Private Wetterstation Wechselburg
Wetterdaten: Mittwoch, 13.06.2012
Datum Zeit Temp. +2m Bodentemp. Temp.+5cm Temp. Wind Windchill X Diff Temp. Feuchte +2m Feuchte +5cm Sonnenschein Luftdruck Regen Wind Richtung Richtung Sonnenschein UV Taupunkt Windchill Windben
13.06.2012 00:00 13,6 C 21,9 C 15,2 C 13,3 C 12,8 C 0,0 C 82 % 92 % 0 % 1005,6 hPa 0,0 l/m 0,0 km/h (0 Bft) SO 135 0 min 0,0 UV-I 10,6 C 12,8 C 0,0 km/h (0 Bft)
13.06.2012 00:09 13,5 C 21,8 C 15,2 C 13,2 C 12,7 C 0,0 C 82 % 92 % 0 % 1005,6 hPa 0,0 l/m 0,5 km/h (0 Bft) N 0 0 min 0,0 UV-I 10,5 C 12,7 C 3,2 km/h (1 Bft)
13.06.2012 00:20 13,2 C 21,9 C 15,1 C 12,9 C 12,3 C 0,0 C 82 % 92 % 0 % 1005,6 hPa 0,0 l/m 0,3 km/h (0 Bft) SW 225 0 min 0,0 UV-I 10,2 C 12,3 C 3,5 km/h (1 Bft)
13.06.2012 00:25 13,1 C 21,9 C 14,9 C 12,8 C 12,2 C 0,0 C 83 % 92 % 0 % 1005,8 hPa 0,0 l/m 0,0 km/h (0 Bft) SW 225 0 min 0,0 UV-I 10,3 C 12,2 C 0,0 km/h (0 Bft)
13.06.2012 00:30 13,1 C 21,9 C 14,9 C 12,8 C 12,1 C 0,0 C 83 % 92 % 0 % 1005,8 hPa 0,0 l/m 0,0 km/h (0 Bft) SW 225 0 min 0,0 UV-I 10,3 C 12,1 C 0,0 km/h (0 Bft)
13.06.2012 00:35 12,8 C 21,9 C 14,9 C 12,6 C 12,2 C 0,0 C 83 % 92 % 0 % 1005,8 hPa 0,0 l/m 0,0 km/h (0 Bft) SW 225 0 min 0,0 UV-I 10,0 C 12,2 C 0,0 km/h (0 Bft)
13.06.2012 00:40 12,8 C 21,9 C 14,8 C 12,6 C 12,2 C 0,0 C 84 % 92 % 0 % 1005,8 hPa 0,0 l/m 0,0 km/h (0 Bft) SW 225 0 min 0,0 UV-I 10,2 C 12,2 C 0,0 km/h (0 Bft)
13.06.2012 00:45 12,7 C 21,8 C 14,8 C 12,5 C 12,1 C 0,0 C 84 % 92 % 0 % 1005,9 hPa 0,0 l/m 0,0 km/h (0 Bft) S-SW 202 0 min 0,0 UV-I 10,1 C 12,1 C 0,0 km/h (0 Bft)
13.06.2012 00:50 12,7 C 21,8 C 14,8 C 12,5 C 12,1 C 0,0 C 84 % 92 % 0 % 1005,9 hPa 0,0 l/m 0,0 km/h (0 Bft) SW 225 0 min 0,0 UV-I 10,1 C 12,1 C 0,0 km/h (0 Bft)
13.06.2012 00:55 12,7 C 21,8 C 14,8 C 12,4 C 11,9 C 0,0 C 84 % 92 % 0 % 1005,9 hPa 0,0 l/m 0,0 km/h (0 Bft) SW 225 0 min 0,0 UV-I 10,1 C 11,9 C 0,0 km/h (0 Bft)
13.06.2012 01:00 12,5 C 21,8 C 14,8 C 12,3 C 11,9 C 0,0 C 85 % 92 % 0 % 1005,9 hPa 0,0 l/m 0,0 km/h (0 Bft) S-SW 202 0 min 0,0 UV-I 10,0 C 11,9 C 0,0 km/h (0 Bft)
13.06.2012 01:15 12,3 C 21,8 C 14,7 C 12,1 C 11,6 C 0,0 C 84 % 92 % 0 % 1006,2 hPa 0,0 l/m 0,2 km/h (0 Bft) S-SW 202 0 min 0,0 UV-I 9,7 C 11,6 C 0,0 km/h (0 Bft)
13.06.2012 01:25 12,1 C 21,8 C 14,7 C 11,9 C 11,6 C 0,0 C 85 % 92 % 0 % 1006,4 hPa 0,0 l/m 0,0 km/h (0 Bft) S 180 0 min 0,0 UV-I 9,7 C 11,6 C 0,0 km/h (0 Bft)
13.06.2012 01:30 12,1 C 21,8 C 14,7 C 12,0 C 11,7 C 0,0 C 86 % 92 % 0 % 1006,4 hPa 0,0 l/m 0,0 km/h (0 Bft) S 180 0 min 0,0 UV-I 9,8 C 11,7 C 0,0 km/h (0 Bft)
13.06.2012 01:35 12,1 C 21,8 C 14,7 C 12,0 C 11,7 C 0,0 C 86 % 92 % 0 % 1006,4 hPa 0,0 l/m 0,0 km/h (0 Bft) S 180 0 min 0,0 UV-I 9,8 C 11,7 C 0,0 km/h (0 Bft)
13.06.2012 01:40 12,1 C 21,8 C 14,7 C 12,0 C 11,7 C 0,0 C 86 % 92 % 0 % 1006,4 hPa 0,0 l/m 0,0 km/h (0 Bft) S 180 0 min 0,0 UV-I 9,8 C 11,7 C 0,0 km/h (0 Bft)
13.06.2012 01:45 12,0 C 21,8 C 14,6 C 11,9 C 11,7 C 0,0 C 86 % 93 % 0 % 1006,5 hPa 0,0 l/m 0,0 km/h (0 Bft) S 180 0 min 0,0 UV-I 9,7 C 11,7 C 0,0 km/h (0 Bft)
13.06.2012 01:50 12,0 C 21,8 C 14,6 C 11,9 C 11,7 C 0,0 C 86 % 93 % 0 % 1006,5 hPa 0,0 l/m 0,0 km/h (0 Bft) S 180 0 min 0,0 UV-I 9,7 C 11,7 C 0,0 km/h (0 Bft)
13.06.2012 01:55 12,1 C 21,8 C 14,7 C 12,0 C 11,8 C 0,0 C 86 % 93 % 0 % 1006,5 hPa 0,0 l/m 0,0 km/h (0 Bft) S 180 0 min 0,0 UV-I 9,8 C 11,8 C 0,0 km/h (0 Bft)
13.06.2012 02:00 12,0 C 21,8 C 14,6 C 12,0 C 11,9 C 0,0 C 86 % 93 % 0 % 1006,5 hPa 0,0 l/m 0,0 km/h (0 Bft) S 180 0 min 0,0 UV-I 9,7 C 11,9 C 1,9 km/h (1 Bft)
13.06.2012 02:11 12,0 C 21,7 C 14,7 C 12,0 C 12,0 C 0,0 C 87 % 93 % 0 % 1006,2 hPa 0,0 l/m 0,0 km/h (0 Bft) N 0 0 min 0,0 UV-I 9,9 C 12,0 C 0,0 km/h (0 Bft)
13.06.2012 02:20 11,9 C 21,7 C 14,7 C 11,8 C 11,7 C 0,0 C 87 % 93 % 0 % 1006,2 hPa 0,0 l/m 0,2 km/h (0 Bft) W-SW 247 0 min 0,0 UV-I 9,8 C 11,7 C 0,0 km/h (0 Bft)
13.06.2012 02:25 11,8 C 21,7 C 14,7 C 11,7 C 11,6 C 0,0 C 87 % 93 % 0 % 1006,4 hPa 0,0 l/m 0,3 km/h (0 Bft) W-SW 247 0 min 0,0 UV-I 9,7 C 11,6 C 1,8 km/h (1 Bft)
13.06.2012 02:30 11,8 C 21,6 C 14,7 C 11,8 C 11,7 C 0,0 C 87 % 93 % 0 % 1006,4 hPa 0,0 l/m 0,6 km/h (0 Bft) W-SW 247 0 min 0,0 UV-I 9,7 C 11,7 C 3,7 km/h (1 Bft)
13.06.2012 02:35 11,8 C 21,6 C 14,7 C 11,8 C 11,7 C 0,0 C 87 % 93 % 0 % 1006,4 hPa 0,0 l/m 1,3 km/h (1 Bft) SW 225 0 min 0,0 UV-I 9,7 C 11,7 C 0,0 km/h (0 Bft)
13.06.2012 02:40 11,9 C 21,6 C 14,7 C 11,9 C 11,8 C 0,0 C 87 % 93 % 0 % 1006,4 hPa 0,0 l/m 1,4 km/h (1 Bft) S 180 0 min 0,0 UV-I 9,8 C 11,8 C 2,1 km/h (1 Bft)
13.06.2012 02:45 11,9 C 21,6 C 14,7 C 11,9 C 11,9 C 0,0 C 87 % 93 % 0 % 1006,4 hPa 0,0 l/m 1,4 km/h (1 Bft) W-SW 247 0 min 0,0 UV-I 9,8 C 11,9 C 4,3 km/h (1 Bft)
13.06.2012 02:50 11,9 C 21,6 C 14,5 C 11,9 C 11,9 C 0,0 C 88 % 93 % 0 % 1006,4 hPa 0,0 l/m 1,8 km/h (1 Bft) SW 225 0 min 0,0 UV-I 10,0 C 11,9 C 2,9 km/h (1 Bft)
13.06.2012 02:55 12,0 C 21,6 C 14,5 C 11,9 C 11,8 C 0,0 C 88 % 93 % 0 % 1006,4 hPa 0,0 l/m 2,1 km/h (1 Bft) W-SW 247 0 min 0,0 UV-I 10,1 C 11,8 C 4,5 km/h (1 Bft)
13.06.2012 03:00 12,0 C 21,6 C 14,5 C 12,0 C 11,9 C 0,0 C 88 % 93 % 0 % 1006,4 hPa 0,0 l/m 1,9 km/h (1 Bft) W-SW 247 0 min 0,0 UV-I 10,1 C 11,9 C 1,6 km/h (1 Bft)
13.06.2012 03:06 12,0 C 21,6 C 14,5 C 11,9 C 11,8 C 0,0 C 88 % 93 % 0 % 1006,6 hPa 0,0 l/m 1,4 km/h (1 Bft) N 0 0 min 0,0 UV-I 10,1 C 11,8 C 4,0 km/h (1 Bft)
13.06.2012 03:20 11,8 C 21,6 C 14,5 C 11,8 C 11,7 C 0,0 C 87 % 93 % 0 % 1006,6 hPa 0,0 l/m 0,5 km/h (0 Bft) W 270 0 min 0,0 UV-I 9,7 C 11,7 C 0,0 km/h (0 Bft)
13.06.2012 03:25 11,9 C 21,6 C 14,4 C 11,8 C 11,6 C 0,0 C 87 % 93 % 0 % 1006,7 hPa 0,0 l/m 0,2 km/h (0 Bft) W 270 0 min 0,0 UV-I 9,8 C 11,6 C 0,0 km/h (0 Bft)
13.06.2012 03:30 11,8 C 21,6 C 14,4 C 11,8 C 11,7 C 0,0 C 87 % 93 % 0 % 1006,7 hPa 0,0 l/m 0,2 km/h (0 Bft) W-SW 247 0 min 0,0 UV-I 9,7 C 11,7 C 2,4 km/h (1 Bft)
13.06.2012 03:35 11,8 C 21,5 C 14,4 C 11,8 C 11,7 C 0,0 C 88 % 93 % 0 % 1006,7 hPa 0,0 l/m 1,0 km/h (0 Bft) SW 225 0 min 0,0 UV-I 9,9 C 11,7 C 5,0 km/h (1 Bft)
13.06.2012 03:40 11,9 C 21,5 C 14,4 C 11,9 C 11,9 C 0,0 C 88 % 93 % 0 % 1006,7 hPa 0,0 l/m 1,4 km/h (1 Bft) SW 225 0 min 0,0 UV-I 10,0 C 11,9 C 1,8 km/h (1 Bft)
13.06.2012 03:45 11,8 C 21,5 C 14,5 C 12,1 C 12,1 C 0,3 C 88 % 93 % 0 % 1006,9 hPa 0,0 l/m 1,4 km/h (1 Bft) SW 225 0 min 0,0 UV-I 9,9 C 12,1 C 2,7 km/h (1 Bft)
13.06.2012 03:50 11,9 C 21,5 C 14,5 C 12,2 C 12,2 C 0,3 C 88 % 93 % 0 % 1006,9 hPa 0,0 l/m 1,9 km/h (1 Bft) W-SW 247 0 min 0,0 UV-I 10,0 C 12,2 C 3,7 km/h (1 Bft)
13.06.2012 03:55 12,1 C 21,5 C 14,4 C 12,4 C 12,4 C 0,3 C 89 % 93 % 0 % 1006,9 hPa 0,0 l/m 2,6 km/h (1 Bft) W-SW 247 0 min 0,0 UV-I 10,3 C 12,4 C 5,6 km/h (1 Bft)
13.06.2012 04:00 12,0 C 21,4 C 14,4 C 12,4 C 12,4 C 0,4 C 89 % 93 % 0 % 1006,9 hPa 0,0 l/m 2,6 km/h (1 Bft) S-SW 202 0 min 0,0 UV-I 10,2 C 12,4 C 5,8 km/h (2 Bft)
13.06.2012 04:06 12,1 C 21,4 C 14,5 C 12,5 C 12,5 C 0,4 C 89 % 92 % 0 % 1006,9 hPa 0,0 l/m 1,9 km/h (1 Bft) N 0 0 min 0,0 UV-I 10,3 C 12,5 C 3,9 km/h (1 Bft)
13.06.2012 04:20 12,3 C 21,4 C 14,5 C 12,8 C 12,8 C 0,5 C 88 % 92 % 0 % 1006,9 hPa 0,0 l/m 1,8 km/h (1 Bft) S-SW 202 0 min 0,0 UV-I 10,4 C 12,8 C 1,8 km/h (1 Bft)
13.06.2012 04:25 12,5 C 21,4 C 14,5 C 12,8 C 12,8 C 0,3 C 88 % 92 % 0 % 1007,2 hPa 0,0 l/m 1,4 km/h (1 Bft) W-SW 247 0 min 0,0 UV-I 10,6 C 12,8 C 2,1 km/h (1 Bft)
13.06.2012 04:30 12,4 C 21,4 C 14,5 C 12,8 C 12,8 C 0,4 C 88 % 92 % 0 % 1007,2 hPa 0,0 l/m 1,9 km/h (1 Bft) W-NW 292 0 min 0,0 UV-I 10,5 C 12,8 C 3,1 km/h (1 Bft)
13.06.2012 04:35 12,5 C 21,4 C 14,4 C 12,8 C 12,8 C 0,3 C 88 % 93 % 0 % 1007,2 hPa 0,0 l/m 1,9 km/h (1 Bft) N-NO 22 0 min 0,0 UV-I 10,6 C 12,8 C 2,3 km/h (1 Bft)
13.06.2012 04:40 12,5 C 21,4 C 14,5 C 12,8 C 12,8 C 0,3 C 88 % 92 % 0 % 1007,2 hPa 0,0 l/m 1,6 km/h (1 Bft) W 270 0 min 0,0 UV-I 10,6 C 12,8 C 2,1 km/h (1 Bft)
13.06.2012 04:45 12,6 C 21,4 C 14,5 C 13,0 C 13,0 C 0,4 C 88 % 93 % 0 % 1007,2 hPa 0,0 l/m 1,0 km/h (0 Bft) W 270 0 min 0,0 UV-I 10,7 C 13,0 C 1,8 km/h (1 Bft)
13.06.2012 04:50 12,6 C 21,4 C 14,6 C 13,1 C 13,1 C 0,5 C 88 % 93 % 0 % 1007,2 hPa 0,0 l/m 1,1 km/h (1 Bft) W 270 0 min 0,0 UV-I 10,7 C 13,1 C 3,1 km/h (1 Bft)
13.06.2012 04:55 12,7 C 21,4 C 14,6 C 13,2 C 13,2 C 0,5 C 88 % 93 % 0 % 1007,2 hPa 0,0 l/m 1,9 km/h (1 Bft) NW 315 0 min 0,0 UV-I 10,8 C 13,2 C 3,7 km/h (1 Bft)
13.06.2012 05:00 12,7 C 21,4 C 14,6 C 13,3 C 13,3 C 0,6 C 88 % 93 % 0 % 1007,2 hPa 0,0 l/m 2,3 km/h (1 Bft) S-SW 202 0 min 0,0 UV-I 10,8 C 13,3 C 2,9 km/h (1 Bft)
13.06.2012 05:05 12,7 C 21,4 C 14,5 C 13,2 C 13,2 C 0,5 C 88 % 93 % 0 % 1007,3 hPa 0,0 l/m 2,3 km/h (1 Bft) W-SW 247 0 min 0,0 UV-I 10,8 C 13,2 C 3,1 km/h (1 Bft)
13.06.2012 05:10 12,8 C 21,4 C 14,5 C 13,2 C 13,2 C 0,4 C 88 % 93 % 11 % 1007,3 hPa 0,0 l/m 2,1 km/h (1 Bft) SW 225 5 min 0,0 UV-I 10,9 C 13,2 C 2,4 km/h (1 Bft)
13.06.2012 05:15 12,8 C 21,4 C 14,5 C 13,2 C 13,2 C 0,4 C 88 % 93 % 11 % 1007,3 hPa 0,0 l/m 2,1 km/h (1 Bft) W-SW 247 5 min 0,0 UV-I 10,9 C 13,2 C 6,8 km/h (2 Bft)
13.06.2012 05:20 12,9 C 21,4 C 14,5 C 13,3 C 13,3 C 0,4 C 88 % 93 % 11 % 1007,3 hPa 0,0 l/m 2,4 km/h (1 Bft) W-SW 247 0 min 0,0 UV-I 11,0 C 13,3 C 3,5 km/h (1 Bft)
13.06.2012 05:25 12,9 C 21,3 C 14,5 C 13,4 C 13,4 C 0,5 C 88 % 93 % 13 % 1007,9 hPa 0,0 l/m 2,3 km/h (1 Bft) W 270 0 min 0,0 UV-I 11,0 C 13,4 C 3,5 km/h (1 Bft)
13.06.2012 05:30 12,9 C 21,3 C 14,6 C 13,4 C 13,4 C 0,5 C 88 % 93 % 13 % 1007,9 hPa 0,0 l/m 1,9 km/h (1 Bft) SW 225 0 min 0,0 UV-I 11,0 C 13,4 C 4,5 km/h (1 Bft)
13.06.2012 05:35 12,9 C 21,3 C 14,5 C 13,5 C 13,5 C 0,6 C 88 % 93 % 16 % 1007,9 hPa 0,0 l/m 2,1 km/h (1 Bft) S 180 0 min 0,0 UV-I 11,0 C 13,5 C 3,5 km/h (1 Bft)
13.06.2012 05:40 12,9 C 21,3 C 14,5 C 13,6 C 13,6 C 0,7 C 88 % 93 % 18 % 1007,9 hPa 0,0 l/m 2,3 km/h (1 Bft) SW 225 0 min 0,0 UV-I 11,0 C 13,6 C 3,9 km/h (1 Bft)
13.06.2012 05:45 13,1 C 21,3 C 14,6 C 13,7 C 13,7 C 0,6 C 88 % 93 % 16 % 1007,9 hPa 0,0 l/m 2,1 km/h (1 Bft) W-SW 247 0 min 0,0 UV-I 11,2 C 13,7 C 2,4 km/h (1 Bft)
13.06.2012 05:50 13,1 C 21,3 C 14,5 C 13,8 C 13,8 C 0,7 C 88 % 93 % 18 % 1007,9 hPa 0,0 l/m 2,7 km/h (1 Bft) SW 225 0 min 0,0 UV-I 11,2 C 13,8 C 5,8 km/h (2 Bft)
13.06.2012 05:55 13,2 C 21,3 C 14,6 C 13,8 C 13,8 C 0,6 C 88 % 93 % 16 % 1007,9 hPa 0,0 l/m 3,2 km/h (1 Bft) S-SO 157 0 min 0,0 UV-I 11,3 C 13,8 C 4,2 km/h (1 Bft)
13.06.2012 06:00 13,3 C 21,3 C 14,6 C 13,9 C 13,9 C 0,6 C 88 % 93 % 16 % 1007,9 hPa 0,0 l/m 3,2 km/h (1 Bft) SW 225 0 min 0,0 UV-I 11,4 C 13,9 C 2,4 km/h (1 Bft)
13.06.2012 06:11 13,4 C 21,3 C 14,6 C 14,2 C 14,2 C 0,8 C 88 % 93 % 21 % 1008,0 hPa 0,0 l/m 3,2 km/h (1 Bft) N 0 0 min 0,0 UV-I 11,5 C 14,2 C 11,7 km/h (2 Bft)
13.06.2012 06:25 13,5 C 21,2 C 14,6 C 14,5 C 14,5 C 1,0 C 88 % 93 % 26 % 1008,2 hPa 0,0 l/m 3,4 km/h (1 Bft) S 180 0 min 0,0 UV-I 11,6 C 14,5 C 3,7 km/h (1 Bft)
13.06.2012 06:30 13,5 C 21,2 C 14,7 C 14,6 C 14,6 C 1,1 C 88 % 92 % 29 % 1008,2 hPa 0,0 l/m 4,0 km/h (1 Bft) S 180 0 min 0,0 UV-I 11,6 C 14,6 C 6,8 km/h (2 Bft)
13.06.2012 06:35 13,6 C 21,2 C 14,7 C 14,6 C 14,6 C 1,0 C 87 % 92 % 26 % 1008,2 hPa 0,0 l/m 5,0 km/h (1 Bft) W-SW 247 0 min 0,0 UV-I 11,5 C 14,6 C 3,9 km/h (1 Bft)
13.06.2012 06:40 13,6 C 21,2 C 14,7 C 14,6 C 14,6 C 1,0 C 87 % 92 % 26 % 1008,2 hPa 0,0 l/m 4,3 km/h (1 Bft) SW 225 0 min 0,0 UV-I 11,5 C 14,6 C 4,5 km/h (1 Bft)
13.06.2012 06:45 13,6 C 21,2 C 14,6 C 14,5 C 14,5 C 0,9 C 87 % 92 % 24 % 1008,5 hPa 0,0 l/m 3,7 km/h (1 Bft) W 270 0 min 0,0 UV-I 11,5 C 14,5 C 4,8 km/h (1 Bft)
13.06.2012 06:50 13,6 C 21,2 C 14,6 C 14,5 C 14,5 C 0,9 C 87 % 92 % 24 % 1008,5 hPa 0,0 l/m 3,5 km/h (1 Bft) SW 225 0 min 0,0 UV-I 11,5 C 14,5 C 4,5 km/h (1 Bft)
13.06.2012 06:55 13,6 C 21,2 C 14,7 C 14,5 C 14,5 C 0,9 C 87 % 92 % 24 % 1008,5 hPa 0,0 l/m 4,2 km/h (1 Bft) W-SW 247 0 min 0,0 UV-I 11,5 C 14,5 C 4,7 km/h (1 Bft)
13.06.2012 07:00 13,6 C 21,2 C 14,7 C 14,4 C 14,4 C 0,8 C 87 % 92 % 21 % 1008,5 hPa 0,0 l/m 4,0 km/h (1 Bft) SW 225 0 min 0,0 UV-I 11,5 C 14,4 C 1,9 km/h (1 Bft)
13.06.2012 07:11 13,6 C 21,2 C 14,7 C 14,4 C 14,4 C 0,8 C 86 % 92 % 21 % 1008,7 hPa 0,0 l/m 4,3 km/h (1 Bft) N 0 0 min 0,0 UV-I 11,3 C 14,4 C 12,6 km/h (3 Bft)
13.06.2012 07:20 13,6 C 21,2 C 14,7 C 14,4 C 14,4 C 0,8 C 86 % 92 % 21 % 1008,7 hPa 0,0 l/m 3,7 km/h (1 Bft) W-SW 247 0 min 0,0 UV-I 11,3 C 14,4 C 4,2 km/h (1 Bft)
13.06.2012 07:25 13,6 C 21,2 C 14,6 C 14,5 C 14,5 C 0,9 C 86 % 92 % 24 % 1008,9 hPa 0,0 l/m 2,9 km/h (1 Bft) S-SW 202 0 min 0,0 UV-I 11,3 C 14,5 C 2,6 km/h (1 Bft)
13.06.2012 07:30 13,7 C 21,2 C 14,7 C 14,5 C 14,5 C 0,8 C 86 % 92 % 21 % 1008,9 hPa 0,0 l/m 3,5 km/h (1 Bft) S 180 0 min 0,0 UV-I 11,4 C 14,5 C 5,8 km/h (2 Bft)
13.06.2012 07:35 13,7 C 21,2 C 14,6 C 14,5 C 14,5 C 0,8 C 86 % 92 % 21 % 1008,9 hPa 0,0 l/m 3,4 km/h (1 Bft) SW 225 0 min 0,0 UV-I 11,4 C 14,5 C 0,0 km/h (0 Bft)
13.06.2012 07:40 13,7 C 21,2 C 14,7 C 14,5 C 14,5 C 0,8 C 86 % 92 % 21 % 1008,9 hPa 0,0 l/m 3,5 km/h (1 Bft) NW 315 0 min 0,0 UV-I 11,4 C 14,5 C 5,3 km/h (1 Bft)
13.06.2012 07:45 13,7 C 21,2 C 14,6 C 14,5 C 14,5 C 0,8 C 86 % 92 % 21 % 1009,1 hPa 0,0 l/m 4,0 km/h (1 Bft) S-SW 202 0 min 0,0 UV-I 11,4 C 14,5 C 10,6 km/h (2 Bft)
13.06.2012 07:50 13,7 C 21,2 C 14,6 C 14,5 C 14,5 C 0,8 C 85 % 92 % 21 % 1009,1 hPa 0,0 l/m 4,2 km/h (1 Bft) S-SW 202 0 min 0,0 UV-I 11,2 C 14,5 C 3,9 km/h (1 Bft)
13.06.2012 07:55 13,7 C 21,2 C 14,6 C 14,5 C 14,5 C 0,8 C 85 % 92 % 21 % 1009,1 hPa 0,0 l/m 4,5 km/h (1 Bft) W-SW 247 0 min 0,0 UV-I 11,2 C 14,5 C 13,8 km/h (3 Bft)
13.06.2012 08:00 13,7 C 21,2 C 14,6 C 14,5 C 14,5 C 0,8 C 85 % 92 % 21 % 1009,1 hPa 0,0 l/m 4,8 km/h (1 Bft) W-SW 247 0 min 0,0 UV-I 11,2 C 14,5 C 4,0 km/h (1 Bft)
13.06.2012 08:06 13,7 C 21,2 C 14,7 C 14,8 C 14,8 C 1,1 C 85 % 92 % 29 % 1009,4 hPa 0,0 l/m 4,3 km/h (1 Bft) N 0 0 min 0,0 UV-I 11,2 C 14,8 C 7,9 km/h (2 Bft)
13.06.2012 08:20 13,8 C 21,2 C 14,6 C 15,2 C 15,2 C 1,4 C 84 % 91 % 37 % 1009,4 hPa 0,0 l/m 4,2 km/h (1 Bft) N-NW 337 0 min 0,0 UV-I 11,1 C 15,2 C 2,4 km/h (1 Bft)
13.06.2012 08:25 13,9 C 21,2 C 14,7 C 15,6 C 15,6 C 1,7 C 83 % 91 % 45 % 1009,9 hPa 0,0 l/m 3,4 km/h (1 Bft) W-SW 247 0 min 0,0 UV-I 11,1 C 15,6 C 2,9 km/h (1 Bft)
13.06.2012 08:30 14,0 C 21,2 C 14,7 C 15,7 C 15,7 C 1,7 C 83 % 91 % 45 % 1009,9 hPa 0,0 l/m 3,4 km/h (1 Bft) SW 225 0 min 0,0 UV-I 11,2 C 15,7 C 4,8 km/h (1 Bft)
13.06.2012 08:35 14,0 C 21,2 C 14,6 C 15,8 C 15,8 C 1,8 C 83 % 91 % 47 % 1009,9 hPa 0,0 l/m 4,2 km/h (1 Bft) S 180 0 min 0,0 UV-I 11,2 C 15,8 C 1,6 km/h (1 Bft)
13.06.2012 08:40 14,1 C 21,2 C 14,6 C 15,9 C 15,9 C 1,8 C 82 % 91 % 47 % 1009,9 hPa 0,0 l/m 4,0 km/h (1 Bft) S 180 0 min 0,0 UV-I 11,1 C 15,9 C 2,7 km/h (1 Bft)
13.06.2012 08:45 14,0 C 21,2 C 14,6 C 15,7 C 15,7 C 1,7 C 82 % 91 % 45 % 1009,8 hPa 0,0 l/m 3,5 km/h (1 Bft) N 360 0 min 0,0 UV-I 11,0 C 15,7 C 1,8 km/h (1 Bft)
13.06.2012 08:50 14,1 C 21,2 C 14,7 C 15,4 C 15,4 C 1,3 C 82 % 91 % 34 % 1009,8 hPa 0,0 l/m 3,4 km/h (1 Bft) W-NW 292 0 min 0,0 UV-I 11,1 C 15,4 C 7,7 km/h (2 Bft)
13.06.2012 08:55 13,9 C 21,0 C 14,5 C 15,1 C 15,1 C 1,2 C 81 % 90 % 32 % 1009,8 hPa 0,0 l/m 3,7 km/h (1 Bft) W 270 0 min 0,0 UV-I 10,7 C 15,1 C 2,4 km/h (1 Bft)
13.06.2012 09:00 13,8 C 21,0 C 14,7 C 15,1 C 15,1 C 1,3 C 82 % 91 % 34 % 1009,8 hPa 0,0 l/m 3,7 km/h (1 Bft) SW 225 0 min 0,0 UV-I 10,8 C 15,1 C 6,8 km/h (2 Bft)
13.06.2012 09:11 13,8 C 20,9 C 14,4 C 15,5 C 15,5 C 1,7 C 82 % 89 % 45 % 1010,6 hPa 0,0 l/m 5,0 km/h (1 Bft) N 0 0 min 0,0 UV-I 10,8 C 15,5 C 4,5 km/h (1 Bft)
13.06.2012 09:20 13,7 C 20,9 C 14,4 C 15,3 C 15,3 C 1,6 C 82 % 89 % 42 % 1010,6 hPa 0,0 l/m 5,1 km/h (1 Bft) SW 225 0 min 0,0 UV-I 10,7 C 15,3 C 7,6 km/h (2 Bft)
13.06.2012 09:25 13,6 C 20,9 C 14,5 C 15,1 C 15,1 C 1,5 C 82 % 89 % 39 % 1010,4 hPa 0,0 l/m 4,7 km/h (1 Bft) W-SW 247 0 min 0,0 UV-I 10,6 C 15,1 C 7,1 km/h (2 Bft)
13.06.2012 09:30 13,7 C 20,9 C 14,4 C 15,1 C 15,1 C 1,4 C 82 % 89 % 37 % 1010,4 hPa 0,0 l/m 4,7 km/h (1 Bft) SW 225 0 min 0,0 UV-I 10,7 C 15,1 C 4,8 km/h (1 Bft)
13.06.2012 09:35 13,6 C 20,9 C 14,5 C 15,0 C 15,0 C 1,4 C 82 % 89 % 37 % 1010,4 hPa 0,0 l/m 5,0 km/h (1 Bft) SW 225 0 min 0,0 UV-I 10,6 C 15,0 C 5,8 km/h (2 Bft)
13.06.2012 09:40 13,5 C 20,9 C 14,4 C 14,8 C 14,8 C 1,3 C 82 % 89 % 34 % 1010,4 hPa 0,0 l/m 5,6 km/h (1 Bft) W-SW 247 0 min 0,0 UV-I 10,5 C 14,8 C 8,4 km/h (2 Bft)
13.06.2012 09:45 13,5 C 20,9 C 14,5 C 14,9 C 14,9 C 1,4 C 82 % 89 % 37 % 1010,6 hPa 0,0 l/m 4,8 km/h (1 Bft) S-SW 202 0 min 0,0 UV-I 10,5 C 14,9 C 4,0 km/h (1 Bft)
13.06.2012 09:50 13,6 C 20,9 C 14,4 C 15,1 C 15,1 C 1,5 C 83 % 90 % 39 % 1010,6 hPa 0,0 l/m 3,4 km/h (1 Bft) S-SW 202 0 min 0,0 UV-I 10,8 C 15,1 C 3,4 km/h (1 Bft)
13.06.2012 09:55 13,8 C 20,9 C 14,5 C 15,5 C 15,5 C 1,7 C 83 % 90 % 45 % 1010,6 hPa 0,0 l/m 3,1 km/h (1 Bft) W-SW 247 0 min 0,0 UV-I 11,0 C 15,5 C 6,0 km/h (2 Bft)
13.06.2012 10:00 13,8 C 20,9 C 14,5 C 15,5 C 15,5 C 1,7 C 83 % 90 % 45 % 1010,6 hPa 0,0 l/m 3,5 km/h (1 Bft) W 270 0 min 0,0 UV-I 11,0 C 15,5 C 4,5 km/h (1 Bft)
13.06.2012 10:15 13,8 C 20,9 C 14,4 C 15,5 C 15,5 C 1,7 C 82 % 89 % 45 % 1010,9 hPa 0,0 l/m 4,8 km/h (1 Bft) S 180 0 min 0,0 UV-I 10,8 C 15,5 C 6,1 km/h (2 Bft)
13.06.2012 10:25 13,9 C 20,9 C 14,5 C 15,5 C 15,5 C 1,6 C 83 % 89 % 42 % 1011,0 hPa 0,0 l/m 4,8 km/h (1 Bft) W-SW 247 0 min 0,0 UV-I 11,1 C 15,5 C 9,3 km/h (2 Bft)
13.06.2012 10:30 13,9 C 20,9 C 14,5 C 15,4 C 15,4 C 1,5 C 82 % 89 % 39 % 1011,0 hPa 0,0 l/m 5,0 km/h (1 Bft) S 180 0 min 0,0 UV-I 10,9 C 15,4 C 6,6 km/h (2 Bft)
13.06.2012 10:35 14,0 C 20,9 C 14,5 C 15,7 C 15,7 C 1,7 C 82 % 89 % 45 % 1011,0 hPa 0,0 l/m 4,7 km/h (1 Bft) SW 225 0 min 0,0 UV-I 11,0 C 15,7 C 9,0 km/h (2 Bft)
13.06.2012 10:40 14,0 C 20,9 C 14,5 C 15,6 C 15,6 C 1,6 C 82 % 89 % 42 % 1011,0 hPa 0,0 l/m 4,5 km/h (1 Bft) S-SW 202 0 min 0,0 UV-I 11,0 C 15,6 C 3,1 km/h (1 Bft)
13.06.2012 10:45 14,2 C 20,9 C 14,6 C 15,8 C 15,8 C 1,6 C 82 % 90 % 42 % 1011,3 hPa 0,0 l/m 4,7 km/h (1 Bft) W-SW 247 0 min 0,0 UV-I 11,2 C 15,8 C 5,8 km/h (2 Bft)
13.06.2012 10:50 14,3 C 20,9 C 14,6 C 16,0 C 16,0 C 1,7 C 82 % 90 % 45 % 1011,3 hPa 0,0 l/m 4,8 km/h (1 Bft) O 90 0 min 0,0 UV-I 11,3 C 16,0 C 7,4 km/h (2 Bft)
13.06.2012 10:55 14,3 C 20,9 C 14,7 C 16,4 C 16,4 C 2,1 C 82 % 89 % 55 % 1011,3 hPa 0,0 l/m 5,8 km/h (2 Bft) W 270 0 min 0,0 UV-I 11,3 C 16,4 C 5,3 km/h (1 Bft)
13.06.2012 11:00 14,3 C 20,9 C 14,7 C 16,3 C 16,3 C 2,0 C 82 % 90 % 53 % 1011,3 hPa 0,0 l/m 5,6 km/h (1 Bft) W-SW 247 0 min 0,0 UV-I 11,3 C 16,3 C 9,5 km/h (2 Bft)
13.06.2012 11:15 14,1 C 20,9 C 14,7 C 15,6 C 15,6 C 1,5 C 83 % 89 % 39 % 1011,5 hPa 0,0 l/m 4,8 km/h (1 Bft) S-SO 157 0 min 0,0 UV-I 11,3 C 15,6 C 5,8 km/h (2 Bft)
13.06.2012 11:25 14,3 C 20,8 C 14,7 C 16,0 C 16,0 C 1,7 C 82 % 89 % 45 % 1011,6 hPa 0,0 l/m 4,3 km/h (1 Bft) SW 225 0 min 0,0 UV-I 11,3 C 16,0 C 4,2 km/h (1 Bft)
13.06.2012 11:30 14,4 C 20,8 C 14,7 C 16,0 C 16,0 C 1,6 C 81 % 89 % 42 % 1011,6 hPa 0,0 l/m 4,8 km/h (1 Bft) W 270 0 min 0,0 UV-I 11,2 C 16,0 C 6,4 km/h (2 Bft)
13.06.2012 11:35 14,4 C 20,8 C 14,7 C 16,4 C 16,4 C 2,0 C 81 % 89 % 53 % 1011,6 hPa 0,0 l/m 4,5 km/h (1 Bft) W 270 0 min 0,0 UV-I 11,2 C 16,4 C 7,9 km/h (2 Bft)
13.06.2012 11:40 14,7 C 20,8 C 14,8 C 16,6 C 16,6 C 1,9 C 81 % 89 % 50 % 1011,6 hPa 0,0 l/m 4,0 km/h (1 Bft) S-SW 202 0 min 0,0 UV-I 11,5 C 16,6 C 7,1 km/h (2 Bft)
13.06.2012 11:45 14,6 C 20,8 C 14,8 C 16,6 C 16,6 C 2,0 C 80 % 89 % 53 % 1011,6 hPa 0,0 l/m 5,1 km/h (1 Bft) S 180 0 min 0,0 UV-I 11,2 C 16,6 C 14,2 km/h (3 Bft)
13.06.2012 11:50 14,7 C 20,8 C 14,7 C 16,4 C 16,4 C 1,7 C 81 % 89 % 45 % 1011,6 hPa 0,0 l/m 5,5 km/h (1 Bft) S-SO 157 0 min 0,0 UV-I 11,5 C 16,4 C 7,7 km/h (2 Bft)
13.06.2012 11:55 14,7 C 20,8 C 14,8 C 16,3 C 16,3 C 1,6 C 81 % 89 % 42 % 1011,6 hPa 0,0 l/m 5,1 km/h (1 Bft) N-NO 22 0 min 0,0 UV-I 11,5 C 16,3 C 2,9 km/h (1 Bft)
13.06.2012 12:00 14,6 C 20,8 C 14,9 C 16,4 C 16,4 C 1,8 C 81 % 89 % 47 % 1011,6 hPa 0,0 l/m 5,1 km/h (1 Bft) SW 225 0 min 0,0 UV-I 11,4 C 16,4 C 6,1 km/h (2 Bft)
13.06.2012 12:05 14,6 C 20,8 C 14,8 C 16,2 C 16,2 C 1,6 C 81 % 89 % 42 % 1011,6 hPa 0,0 l/m 5,3 km/h (1 Bft) W-NW 292 0 min 0,0 UV-I 11,4 C 16,2 C 8,7 km/h (2 Bft)
13.06.2012 12:10 14,4 C 20,8 C 14,7 C 15,9 C 15,9 C 1,5 C 81 % 88 % 39 % 1011,6 hPa 0,0 l/m 5,6 km/h (1 Bft) SW 225 0 min 0,0 UV-I 11,2 C 15,9 C 7,4 km/h (2 Bft)
13.06.2012 12:15 14,4 C 20,8 C 14,8 C 16,0 C 16,0 C 1,6 C 81 % 89 % 42 % 1011,6 hPa 0,0 l/m 5,8 km/h (2 Bft) W-NW 292 0 min 0,0 UV-I 11,2 C 16,0 C 5,3 km/h (1 Bft)
13.06.2012 12:20 14,5 C 20,8 C 14,8 C 16,2 C 16,2 C 1,7 C 81 % 89 % 45 % 1011,6 hPa 0,0 l/m 5,6 km/h (1 Bft) S 180 0 min 0,0 UV-I 11,3 C 16,2 C 7,4 km/h (2 Bft)
13.06.2012 12:25 14,6 C 20,8 C 14,8 C 16,5 C 16,5 C 1,9 C 80 % 89 % 50 % 1011,9 hPa 0,0 l/m 5,0 km/h (1 Bft) SW 225 0 min 0,0 UV-I 11,2 C 16,5 C 5,5 km/h (1 Bft)
13.06.2012 12:30 14,7 C 20,8 C 14,8 C 16,6 C 16,6 C 1,9 C 80 % 89 % 50 % 1011,9 hPa 0,0 l/m 5,6 km/h (1 Bft) W-SW 247 0 min 0,0 UV-I 11,3 C 16,6 C 7,1 km/h (2 Bft)
13.06.2012 12:35 14,7 C 20,8 C 14,8 C 16,6 C 16,6 C 1,9 C 81 % 89 % 50 % 1011,9 hPa 0,0 l/m 6,0 km/h (2 Bft) W-SW 247 0 min 0,0 UV-I 11,5 C 16,6 C 7,6 km/h (2 Bft)
13.06.2012 12:40 14,8 C 20,8 C 14,9 C 16,8 C 16,8 C 2,0 C 80 % 88 % 53 % 1011,9 hPa 0,0 l/m 5,6 km/h (1 Bft) S 180 0 min 0,0 UV-I 11,4 C 16,8 C 8,2 km/h (2 Bft)
13.06.2012 12:45 14,8 C 20,8 C 14,8 C 16,5 C 16,5 C 1,7 C 80 % 88 % 45 % 1012,1 hPa 0,0 l/m 5,3 km/h (1 Bft) S-SW 202 0 min 0,0 UV-I 11,4 C 16,5 C 9,0 km/h (2 Bft)
13.06.2012 12:50 14,7 C 20,8 C 14,8 C 16,3 C 16,3 C 1,6 C 80 % 88 % 42 % 1012,1 hPa 0,0 l/m 5,5 km/h (1 Bft) S-SW 202 0 min 0,0 UV-I 11,3 C 16,3 C 6,3 km/h (2 Bft)
13.06.2012 12:55 14,8 C 20,8 C 14,8 C 16,6 C 16,6 C 1,8 C 80 % 88 % 47 % 1012,1 hPa 0,0 l/m 5,0 km/h (1 Bft) SW 225 0 min 0,0 UV-I 11,4 C 16,6 C 8,0 km/h (2 Bft)
13.06.2012 13:00 14,9 C 20,8 C 14,9 C 16,7 C 16,7 C 1,8 C 80 % 88 % 47 % 1012,1 hPa 0,0 l/m 4,5 km/h (1 Bft) W 270 0 min 0,0 UV-I 11,5 C 16,7 C 3,1 km/h (1 Bft)
13.06.2012 13:11 15,1 C 20,8 C 15,0 C 17,1 C 17,1 C 2,0 C 79 % 89 % 53 % 1012,1 hPa 0,0 l/m 3,5 km/h (1 Bft) N 0 0 min 0,0 UV-I 11,5 C 17,1 C 2,7 km/h (1 Bft)
13.06.2012 13:20 15,1 C 20,8 C 15,1 C 17,5 C 17,5 C 2,4 C 78 % 89 % 63 % 1012,1 hPa 0,0 l/m 3,9 km/h (1 Bft) W-SW 247 0 min 0,0 UV-I 11,3 C 17,5 C 6,6 km/h (2 Bft)
13.06.2012 13:25 15,3 C 20,8 C 15,1 C 17,8 C 17,8 C 2,5 C 78 % 88 % 66 % 1012,2 hPa 0,0 l/m 4,2 km/h (1 Bft) SW 225 0 min 0,0 UV-I 11,5 C 17,8 C 5,5 km/h (1 Bft)
13.06.2012 13:30 15,3 C 20,8 C 15,0 C 17,6 C 17,6 C 2,3 C 78 % 88 % 61 % 1012,2 hPa 0,0 l/m 4,7 km/h (1 Bft) S 180 0 min 0,0 UV-I 11,5 C 17,6 C 5,3 km/h (1 Bft)
13.06.2012 13:35 15,3 C 20,8 C 15,1 C 17,4 C 17,4 C 2,1 C 78 % 88 % 55 % 1012,2 hPa 0,0 l/m 4,2 km/h (1 Bft) S 180 0 min 0,0 UV-I 11,5 C 17,4 C 3,5 km/h (1 Bft)
13.06.2012 13:40 15,4 C 20,8 C 15,1 C 17,6 C 17,6 C 2,2 C 78 % 88 % 58 % 1012,2 hPa 0,0 l/m 3,4 km/h (1 Bft) W-SW 247 0 min 0,0 UV-I 11,6 C 17,6 C 3,1 km/h (1 Bft)
13.06.2012 13:45 15,5 C 20,8 C 15,2 C 18,2 C 18,2 C 2,7 C 78 % 88 % 71 % 1012,3 hPa 0,0 l/m 3,9 km/h (1 Bft) W-SW 247 0 min 0,0 UV-I 11,7 C 18,2 C 3,4 km/h (1 Bft)
13.06.2012 13:50 15,6 C 20,8 C 15,3 C 18,4 C 18,4 C 2,8 C 77 % 88 % 74 % 1012,3 hPa 0,0 l/m 4,0 km/h (1 Bft) W 270 0 min 0,0 UV-I 11,6 C 18,4 C 3,9 km/h (1 Bft)
13.06.2012 13:55 15,7 C 20,8 C 15,2 C 18,2 C 18,2 C 2,5 C 77 % 88 % 66 % 1012,3 hPa 0,0 l/m 3,9 km/h (1 Bft) SW 225 0 min 0,0 UV-I 11,7 C 18,2 C 4,7 km/h (1 Bft)
13.06.2012 14:00 15,6 C 20,8 C 15,2 C 17,8 C 17,8 C 2,2 C 77 % 88 % 58 % 1012,3 hPa 0,0 l/m 4,7 km/h (1 Bft) SW 225 0 min 0,0 UV-I 11,6 C 17,8 C 12,7 km/h (3 Bft)
13.06.2012 14:11 15,7 C 20,8 C 15,3 C 18,3 C 18,3 C 2,6 C 77 % 88 % 68 % 1012,4 hPa 0,0 l/m 3,7 km/h (1 Bft) N 0 0 min 0,0 UV-I 11,7 C 18,3 C 7,4 km/h (2 Bft)
13.06.2012 14:20 15,7 C 20,8 C 15,2 C 18,2 C 18,2 C 2,5 C 77 % 88 % 66 % 1012,4 hPa 0,0 l/m 4,0 km/h (1 Bft) SW 225 0 min 0,0 UV-I 11,7 C 18,2 C 1,8 km/h (1 Bft)
13.06.2012 14:25 15,8 C 20,8 C 15,3 C 18,2 C 18,2 C 2,4 C 76 % 88 % 63 % 1012,6 hPa 0,0 l/m 3,7 km/h (1 Bft) W-SW 247 0 min 0,0 UV-I 11,6 C 18,2 C 4,3 km/h (1 Bft)
13.06.2012 14:30 15,9 C 20,8 C 15,3 C 18,3 C 18,3 C 2,4 C 77 % 88 % 63 % 1012,6 hPa 0,0 l/m 2,7 km/h (1 Bft) S-SW 202 0 min 0,0 UV-I 11,9 C 18,3 C 4,3 km/h (1 Bft)
13.06.2012 14:35 16,0 C 20,8 C 15,5 C 18,9 C 18,9 C 2,9 C 76 % 88 % 76 % 1012,6 hPa 0,0 l/m 2,7 km/h (1 Bft) N-NW 337 0 min 0,0 UV-I 11,8 C 18,9 C 1,6 km/h (1 Bft)
13.06.2012 14:40 16,2 C 20,7 C 15,4 C 19,3 C 19,3 C 3,1 C 76 % 88 % 82 % 1012,6 hPa 0,0 l/m 2,6 km/h (1 Bft) W-SW 247 0 min 0,0 UV-I 12,0 C 19,3 C 2,7 km/h (1 Bft)
13.06.2012 14:45 16,1 C 20,7 C 15,4 C 19,4 C 19,4 C 3,3 C 75 % 88 % 87 % 1012,6 hPa 0,0 l/m 3,4 km/h (1 Bft) W-SW 247 5 min 0,0 UV-I 11,7 C 19,4 C 3,2 km/h (1 Bft)
13.06.2012 14:50 16,1 C 20,7 C 15,5 C 19,4 C 19,4 C 3,3 C 74 % 88 % 87 % 1012,6 hPa 0,0 l/m 2,6 km/h (1 Bft) O-NO 67 5 min 0,0 UV-I 11,5 C 19,4 C 0,0 km/h (0 Bft)
13.06.2012 14:55 16,3 C 20,7 C 15,4 C 19,0 C 19,0 C 2,7 C 75 % 88 % 71 % 1012,6 hPa 0,0 l/m 2,3 km/h (1 Bft) W-SW 247 0 min 0,0 UV-I 11,9 C 19,0 C 5,0 km/h (1 Bft)
13.06.2012 15:00 16,1 C 20,7 C 15,5 C 18,6 C 18,6 C 2,5 C 75 % 88 % 66 % 1012,6 hPa 0,0 l/m 2,7 km/h (1 Bft) S-SW 202 0 min 0,0 UV-I 11,7 C 18,6 C 5,1 km/h (1 Bft)
13.06.2012 15:11 16,3 C 20,7 C 15,5 C 18,6 C 18,6 C 2,3 C 75 % 89 % 61 % 1012,6 hPa 0,0 l/m 2,1 km/h (1 Bft) N 0 0 min 0,0 UV-I 11,9 C 18,6 C 0,0 km/h (0 Bft)
13.06.2012 15:20 16,3 C 20,7 C 15,5 C 18,1 C 18,1 C 1,8 C 74 % 89 % 47 % 1012,6 hPa 0,0 l/m 2,1 km/h (1 Bft) S-SW 202 0 min 0,0 UV-I 11,7 C 18,1 C 3,9 km/h (1 Bft)
13.06.2012 15:25 16,3 C 20,8 C 15,5 C 17,8 C 17,8 C 1,5 C 74 % 89 % 39 % 1012,8 hPa 0,0 l/m 2,6 km/h (1 Bft) W-SW 247 0 min 0,0 UV-I 11,7 C 17,8 C 3,5 km/h (1 Bft)
13.06.2012 15:30 16,3 C 20,8 C 15,4 C 17,5 C 17,5 C 1,2 C 74 % 89 % 32 % 1012,8 hPa 0,0 l/m 2,4 km/h (1 Bft) SW 225 0 min 0,0 UV-I 11,7 C 17,5 C 3,7 km/h (1 Bft)
13.06.2012 15:35 16,2 C 20,8 C 15,4 C 17,4 C 17,4 C 1,2 C 74 % 89 % 32 % 1012,8 hPa 0,0 l/m 2,7 km/h (1 Bft) W-SW 247 0 min 0,0 UV-I 11,6 C 17,4 C 3,4 km/h (1 Bft)
13.06.2012 15:40 16,2 C 20,8 C 15,5 C 17,5 C 17,5 C 1,3 C 75 % 89 % 34 % 1012,8 hPa 0,0 l/m 2,6 km/h (1 Bft) W-SW 247 0 min 0,0 UV-I 11,8 C 17,5 C 5,3 km/h (1 Bft)
13.06.2012 15:45 16,3 C 20,7 C 15,5 C 17,8 C 17,8 C 1,5 C 75 % 89 % 39 % 1012,9 hPa 0,0 l/m 2,6 km/h (1 Bft) SW 225 0 min 0,0 UV-I 11,9 C 17,8 C 3,4 km/h (1 Bft)
13.06.2012 15:50 16,4 C 20,7 C 15,5 C 18,2 C 18,2 C 1,8 C 75 % 89 % 47 % 1012,9 hPa 0,0 l/m 2,7 km/h (1 Bft) W-NW 292 0 min 0,0 UV-I 12,0 C 18,2 C 3,5 km/h (1 Bft)
13.06.2012 15:55 16,5 C 20,7 C 15,6 C 18,6 C 18,6 C 2,1 C 74 % 88 % 55 % 1012,9 hPa 0,0 l/m 3,4 km/h (1 Bft) S 180 0 min 0,0 UV-I 11,8 C 18,6 C 3,5 km/h (1 Bft)
13.06.2012 16:00 16,5 C 20,7 C 15,7 C 18,8 C 18,8 C 2,3 C 74 % 88 % 61 % 1012,9 hPa 0,0 l/m 3,4 km/h (1 Bft) SW 225 0 min 0,0 UV-I 11,8 C 18,8 C 2,6 km/h (1 Bft)
13.06.2012 16:13 17,1 C 20,7 C 15,7 C 20,1 C 20,1 C 3,0 C 72 % 88 % 79 % 1012,9 hPa 0,0 l/m 2,3 km/h (1 Bft) W-SW 247 0 min 0,0 UV-I 12,0 C 20,1 C 4,0 km/h (1 Bft)
13.06.2012 16:14 17,1 C 20,7 C 15,7 C 20,1 C 20,1 C 3,0 C 72 % 88 % 79 % 1012,9 hPa 0,0 l/m 2,3 km/h (1 Bft) W-SW 247 0 min 0,0 UV-I 12,0 C 20,1 C 4,0 km/h (1 Bft)
13.06.2012 16:17 17,2 C 20,7 C 15,8 C 20,6 C 20,6 C 3,4 C 72 % 88 % 89 % 1012,9 hPa 0,0 l/m 2,3 km/h (1 Bft) N-NO 22 3 min 0,0 UV-I 12,1 C 20,6 C 4,7 km/h (1 Bft)
13.06.2012 16:25 17,3 C 20,7 C 15,8 C 20,7 C 20,7 C 3,4 C 70 % 88 % 89 % 1012,9 hPa 0,0 l/m 3,2 km/h (1 Bft) SW 225 8 min 0,0 UV-I 11,8 C 20,7 C 5,3 km/h (1 Bft)
13.06.2012 16:30 17,2 C 20,7 C 15,8 C 20,6 C 20,6 C 3,4 C 70 % 87 % 89 % 1012,9 hPa 0,0 l/m 3,1 km/h (1 Bft) W 270 5 min 0,0 UV-I 11,7 C 20,6 C 3,2 km/h (1 Bft)
13.06.2012 16:35 17,4 C 20,7 C 15,9 C 20,8 C 20,8 C 3,4 C 70 % 88 % 89 % 1012,9 hPa 0,0 l/m 3,1 km/h (1 Bft) W-SW 247 5 min 0,0 UV-I 11,9 C 20,8 C 4,2 km/h (1 Bft)
13.06.2012 16:40 17,5 C 20,7 C 15,9 C 20,6 C 20,6 C 3,1 C 69 % 87 % 82 % 1012,9 hPa 0,0 l/m 3,5 km/h (1 Bft) W-NW 292 0 min 0,0 UV-I 11,7 C 20,6 C 6,1 km/h (2 Bft)
13.06.2012 16:45 17,6 C 20,7 C 16,0 C 20,8 C 20,8 C 3,2 C 70 % 87 % 84 % 1012,9 hPa 0,0 l/m 3,5 km/h (1 Bft) SW 225 0 min 0,0 UV-I 12,1 C 20,8 C 5,1 km/h (1 Bft)
13.06.2012 16:50 17,6 C 20,7 C 16,1 C 21,1 C 21,1 C 3,5 C 71 % 87 % 92 % 1012,9 hPa 0,0 l/m 2,9 km/h (1 Bft) W-SW 247 5 min 0,0 UV-I 12,3 C 21,1 C 2,1 km/h (1 Bft)
13.06.2012 16:55 18,0 C 20,7 C 16,3 C 22,0 C 22,0 C 4,0 C 69 % 87 % 100 % 1012,9 hPa 0,0 l/m 3,2 km/h (1 Bft) SW 225 5 min 0,0 UV-I 12,2 C 22,0 C 4,0 km/h (1 Bft)
13.06.2012 17:00 18,1 C 20,7 C 16,3 C 22,4 C 22,4 C 4,3 C 69 % 86 % 100 % 1012,9 hPa 0,0 l/m 3,7 km/h (1 Bft) SW 225 5 min 0,0 UV-I 12,3 C 22,4 C 5,6 km/h (1 Bft)
13.06.2012 17:11 18,5 C 20,8 C 16,4 C 22,2 C 22,2 C 3,7 C 68 % 85 % 97 % 1012,9 hPa 0,0 l/m 4,3 km/h (1 Bft) N 0 11 min 0,0 UV-I 12,5 C 22,2 C 5,0 km/h (1 Bft)
13.06.2012 17:20 18,0 C 20,8 C 16,3 C 21,1 C 21,1 C 3,1 C 68 % 86 % 82 % 1012,9 hPa 0,0 l/m 2,6 km/h (1 Bft) NW 315 0 min 0,0 UV-I 12,0 C 21,1 C 3,4 km/h (1 Bft)
13.06.2012 17:25 18,0 C 20,8 C 16,3 C 20,6 C 20,6 C 2,6 C 68 % 86 % 68 % 1012,9 hPa 0,0 l/m 2,7 km/h (1 Bft) SW 225 0 min 0,0 UV-I 12,0 C 20,6 C 4,7 km/h (1 Bft)
13.06.2012 17:30 18,1 C 20,8 C 16,4 C 21,0 C 21,0 C 2,9 C 69 % 86 % 76 % 1012,9 hPa 0,0 l/m 3,1 km/h (1 Bft) SW 225 0 min 0,0 UV-I 12,3 C 21,0 C 3,5 km/h (1 Bft)
13.06.2012 17:35 18,3 C 20,8 C 16,4 C 22,0 C 22,0 C 3,7 C 69 % 86 % 97 % 1012,9 hPa 0,0 l/m 3,1 km/h (1 Bft) S-SW 202 5 min 0,0 UV-I 12,5 C 22,0 C 5,5 km/h (1 Bft)
13.06.2012 17:40 18,5 C 20,8 C 16,5 C 22,3 C 22,3 C 3,8 C 68 % 86 % 100 % 1012,9 hPa 0,0 l/m 3,5 km/h (1 Bft) S 180 5 min 0,0 UV-I 12,5 C 22,3 C 5,8 km/h (2 Bft)
13.06.2012 17:45 18,7 C 20,8 C 16,7 C 22,9 C 22,9 C 4,2 C 67 % 85 % 100 % 1013,2 hPa 0,0 l/m 4,2 km/h (1 Bft) W-SW 247 5 min 0,0 UV-I 12,4 C 22,9 C 5,0 km/h (1 Bft)
13.06.2012 17:50 18,7 C 20,8 C 16,6 C 22,5 C 22,5 C 3,8 C 67 % 85 % 100 % 1013,2 hPa 0,0 l/m 3,7 km/h (1 Bft) W-SW 247 5 min 0,0 UV-I 12,4 C 22,5 C 0,0 km/h (0 Bft)
13.06.2012 17:55 18,6 C 20,8 C 16,7 C 22,1 C 22,1 C 3,5 C 67 % 85 % 92 % 1013,2 hPa 0,0 l/m 4,0 km/h (1 Bft) S-SW 202 5 min 0,0 UV-I 12,3 C 22,1 C 5,0 km/h (1 Bft)
13.06.2012 18:00 18,5 C 20,8 C 16,6 C 21,9 C 21,9 C 3,4 C 67 % 85 % 89 % 1013,2 hPa 0,0 l/m 3,5 km/h (1 Bft) SW 225 5 min 0,0 UV-I 12,3 C 21,9 C 3,2 km/h (1 Bft)
13.06.2012 18:11 18,2 C 20,8 C 16,5 C 20,3 C 20,3 C 2,1 C 68 % 86 % 55 % 1013,7 hPa 0,0 l/m 2,1 km/h (1 Bft) N 0 0 min 0,0 UV-I 12,2 C 20,3 C 0,0 km/h (0 Bft)
13.06.2012 18:25 18,1 C 20,9 C 16,4 C 20,0 C 20,0 C 1,9 C 68 % 86 % 50 % 1013,4 hPa 0,0 l/m 2,9 km/h (1 Bft) W-SW 247 0 min 0,0 UV-I 12,1 C 20,0 C 5,5 km/h (1 Bft)
13.06.2012 18:30 18,1 C 20,9 C 16,4 C 19,7 C 19,7 C 1,6 C 68 % 85 % 42 % 1013,4 hPa 0,0 l/m 4,0 km/h (1 Bft) W-SW 247 0 min 0,0 UV-I 12,1 C 19,7 C 1,9 km/h (1 Bft)
13.06.2012 18:35 18,0 C 20,9 C 16,4 C 19,5 C 19,5 C 1,5 C 68 % 85 % 39 % 1013,4 hPa 0,0 l/m 3,9 km/h (1 Bft) S 180 0 min 0,0 UV-I 12,0 C 19,5 C 3,9 km/h (1 Bft)
13.06.2012 18:40 17,9 C 20,9 C 16,4 C 19,4 C 19,4 C 1,5 C 68 % 85 % 39 % 1013,4 hPa 0,0 l/m 3,7 km/h (1 Bft) W 270 0 min 0,0 UV-I 11,9 C 19,4 C 5,0 km/h (1 Bft)
13.06.2012 18:45 17,8 C 20,9 C 16,4 C 19,3 C 19,3 C 1,5 C 69 % 85 % 39 % 1013,6 hPa 0,0 l/m 3,4 km/h (1 Bft) SW 225 0 min 0,0 UV-I 12,0 C 19,3 C 0,0 km/h (0 Bft)
13.06.2012 18:50 17,8 C 20,9 C 16,5 C 19,2 C 19,2 C 1,4 C 68 % 85 % 37 % 1013,6 hPa 0,0 l/m 3,4 km/h (1 Bft) NW 315 0 min 0,0 UV-I 11,8 C 19,2 C 3,2 km/h (1 Bft)
13.06.2012 18:55 17,7 C 20,9 C 16,5 C 19,1 C 19,1 C 1,4 C 69 % 86 % 37 % 1013,6 hPa 0,0 l/m 2,3 km/h (1 Bft) SW 225 0 min 0,0 UV-I 11,9 C 19,1 C 0,0 km/h (0 Bft)
13.06.2012 19:00 17,7 C 20,9 C 16,4 C 19,1 C 19,1 C 1,4 C 69 % 86 % 37 % 1013,6 hPa 0,0 l/m 1,8 km/h (1 Bft) S-SW 202 0 min 0,0 UV-I 11,9 C 19,1 C 3,9 km/h (1 Bft)
13.06.2012 19:04 17,7 C 20,9 C 16,3 C 19,0 C 19,0 C 1,3 C 69 % 87 % 34 % 1013,6 hPa 0,0 l/m 1,4 km/h (1 Bft) N 360 0 min 0,0 UV-I 11,9 C 19,0 C 0,0 km/h (0 Bft)
13.06.2012 19:09 17,7 C 20,9 C 16,2 C 18,8 C 18,8 C 1,1 C 68 % 87 % 29 % 1013,6 hPa 0,0 l/m 0,3 km/h (0 Bft) S-SW 202 0 min 0,0 UV-I 11,7 C 18,8 C 0,0 km/h (0 Bft)
13.06.2012 19:14 17,7 C 20,9 C 16,3 C 18,8 C 18,8 C 1,1 C 69 % 88 % 29 % 1013,6 hPa 0,0 l/m 0,6 km/h (0 Bft) W 270 0 min 0,0 UV-I 11,9 C 18,8 C 0,0 km/h (0 Bft)
13.06.2012 19:21 17,7 C 20,9 C 16,3 C 18,8 C 18,8 C 1,1 C 69 % 88 % 29 % 1013,6 hPa 0,0 l/m 0,6 km/h (0 Bft) W 270 0 min 0,0 UV-I 11,9 C 18,8 C 0,0 km/h (0 Bft)
13.06.2012 19:30 17,7 C 20,9 C 16,2 C 18,5 C 18,5 C 0,8 C 69 % 88 % 21 % 1013,5 hPa 0,0 l/m 0,8 km/h (0 Bft) W-SW 247 0 min 0,0 UV-I 11,9 C 18,5 C 2,6 km/h (1 Bft)
13.06.2012 19:35 17,5 C 20,9 C 16,3 C 18,4 C 18,4 C 0,9 C 69 % 88 % 24 % 1013,5 hPa 0,0 l/m 1,3 km/h (1 Bft) W-SW 247 0 min 0,0 UV-I 11,7 C 18,4 C 0,0 km/h (0 Bft)
13.06.2012 19:40 17,5 C 20,9 C 16,2 C 18,2 C 18,2 C 0,7 C 69 % 88 % 18 % 1013,5 hPa 0,0 l/m 1,0 km/h (0 Bft) S 180 0 min 0,0 UV-I 11,7 C 18,2 C 0,0 km/h (0 Bft)
13.06.2012 19:45 17,5 C 20,9 C 16,1 C 18,1 C 18,1 C 0,6 C 70 % 88 % 16 % 1013,8 hPa 0,0 l/m 0,6 km/h (0 Bft) S 180 0 min 0,0 UV-I 12,0 C 18,1 C 2,4 km/h (1 Bft)
13.06.2012 19:50 17,5 C 20,9 C 16,1 C 18,0 C 18,0 C 0,5 C 69 % 88 % 13 % 1013,8 hPa 0,0 l/m 1,0 km/h (0 Bft) W-SW 247 0 min 0,0 UV-I 11,7 C 18,0 C 2,7 km/h (1 Bft)
13.06.2012 19:55 17,4 C 20,9 C 16,0 C 17,8 C 17,8 C 0,4 C 70 % 89 % 11 % 1013,8 hPa 0,0 l/m 1,3 km/h (1 Bft) SW 225 0 min 0,0 UV-I 11,9 C 17,8 C 2,1 km/h (1 Bft)
13.06.2012 20:00 17,3 C 20,9 C 16,0 C 17,6 C 17,6 C 0,3 C 70 % 89 % 8 % 1013,8 hPa 0,0 l/m 1,1 km/h (1 Bft) W-SW 247 0 min 0,0 UV-I 11,8 C 17,6 C 2,6 km/h (1 Bft)
13.06.2012 20:09 17,2 C 21,0 C 16,1 C 17,2 C 17,1 C 0,0 C 72 % 89 % 0 % 1014,0 hPa 0,0 l/m 2,7 km/h (1 Bft) N 0 0 min 0,0 UV-I 12,1 C 17,1 C 2,3 km/h (1 Bft)
13.06.2012 20:20 16,9 C 21,0 C 15,9 C 16,8 C 16,5 C 0,0 C 73 % 89 % 0 % 1014,0 hPa 0,0 l/m 1,8 km/h (1 Bft) W 270 0 min 0,0 UV-I 12,0 C 16,5 C 0,0 km/h (0 Bft)
13.06.2012 20:25 16,8 C 21,0 C 15,9 C 16,6 C 16,3 C 0,0 C 74 % 90 % 0 % 1014,5 hPa 0,0 l/m 1,1 km/h (1 Bft) W-SW 247 0 min 0,0 UV-I 12,1 C 16,3 C 0,0 km/h (0 Bft)
13.06.2012 20:30 16,8 C 21,0 C 15,8 C 16,6 C 16,1 C 0,0 C 75 % 90 % 0 % 1014,5 hPa 0,0 l/m 0,6 km/h (0 Bft) SW 225 0 min 0,0 UV-I 12,3 C 16,1 C 0,0 km/h (0 Bft)
13.06.2012 20:35 16,7 C 21,0 C 15,9 C 16,4 C 15,9 C 0,0 C 75 % 90 % 0 % 1014,5 hPa 0,0 l/m 0,6 km/h (0 Bft) SW 225 0 min 0,0 UV-I 12,2 C 15,9 C 2,4 km/h (1 Bft)
13.06.2012 20:40 16,5 C 21,0 C 15,9 C 16,3 C 15,8 C 0,0 C 77 % 90 % 0 % 1014,5 hPa 0,0 l/m 1,0 km/h (0 Bft) W 270 0 min 0,0 UV-I 12,5 C 15,8 C 4,2 km/h (1 Bft)
13.06.2012 20:45 16,3 C 21,1 C 15,7 C 16,0 C 15,5 C 0,0 C 78 % 91 % 0 % 1014,4 hPa 0,0 l/m 1,9 km/h (1 Bft) SW 225 0 min 0,0 UV-I 12,5 C 15,5 C 0,0 km/h (0 Bft)
13.06.2012 20:50 16,1 C 21,1 C 15,6 C 15,9 C 15,4 C 0,0 C 78 % 91 % 0 % 1014,4 hPa 0,0 l/m 1,4 km/h (1 Bft) W 270 0 min 0,0 UV-I 12,3 C 15,4 C 0,0 km/h (0 Bft)
13.06.2012 20:55 15,9 C 21,1 C 15,6 C 15,7 C 15,3 C 0,0 C 79 % 91 % 0 % 1014,4 hPa 0,0 l/m 0,3 km/h (0 Bft) W-SW 247 0 min 0,0 UV-I 12,3 C 15,3 C 1,8 km/h (1 Bft)
13.06.2012 21:00 15,9 C 21,1 C 15,6 C 15,6 C 15,1 C 0,0 C 80 % 91 % 0 % 1014,4 hPa 0,0 l/m 0,3 km/h (0 Bft) W-SW 247 0 min 0,0 UV-I 12,5 C 15,1 C 0,0 km/h (0 Bft)
13.06.2012 21:04 15,5 C 21,2 C 15,5 C 15,3 C 15,0 C 0,0 C 81 % 91 % 0 % 1014,6 hPa 0,0 l/m 0,2 km/h (0 Bft) SW 225 0 min 0,0 UV-I 12,3 C 15,0 C 3,4 km/h (1 Bft)
13.06.2012 21:09 15,5 C 21,2 C 15,4 C 15,3 C 14,8 C 0,0 C 81 % 91 % 0 % 1014,6 hPa 0,0 l/m 0,3 km/h (0 Bft) W-SW 247 0 min 0,0 UV-I 12,3 C 14,8 C 0,0 km/h (0 Bft)
13.06.2012 21:14 15,3 C 21,2 C 15,5 C 15,1 C 14,8 C 0,0 C 81 % 91 % 0 % 1014,6 hPa 0,0 l/m 0,5 km/h (0 Bft) S-SW 202 0 min 0,0 UV-I 12,1 C 14,8 C 0,0 km/h (0 Bft)
13.06.2012 21:22 15,2 C 21,2 C 15,5 C 15,0 C 14,6 C 0,0 C 81 % 91 % 0 % 1014,9 hPa 0,0 l/m 0,5 km/h (0 Bft) SW 225 0 min 0,0 UV-I 12,0 C 14,6 C 0,0 km/h (0 Bft)
13.06.2012 21:30 15,1 C 21,1 C 15,4 C 14,9 C 14,6 C 0,0 C 82 % 92 % 0 % 1014,9 hPa 0,0 l/m 0,3 km/h (0 Bft) S 180 0 min 0,0 UV-I 12,0 C 14,6 C 0,0 km/h (0 Bft)
13.06.2012 21:35 15,0 C 21,1 C 15,3 C 14,8 C 14,4 C 0,0 C 82 % 92 % 0 % 1014,9 hPa 0,0 l/m 0,0 km/h (0 Bft) S 180 0 min 0,0 UV-I 12,0 C 14,4 C 0,0 km/h (0 Bft)
13.06.2012 21:40 14,9 C 21,2 C 15,3 C 14,7 C 14,4 C 0,0 C 82 % 92 % 0 % 1014,9 hPa 0,0 l/m 0,0 km/h (0 Bft) SW 225 0 min 0,0 UV-I 11,9 C 14,4 C 0,0 km/h (0 Bft)
13.06.2012 21:45 14,8 C 21,2 C 15,2 C 14,7 C 14,4 C 0,0 C 83 % 92 % 0 % 1015,1 hPa 0,0 l/m 0,3 km/h (0 Bft) W-SW 247 0 min 0,0 UV-I 11,9 C 14,4 C 0,0 km/h (0 Bft)
13.06.2012 21:50 14,7 C 21,2 C 15,3 C 14,6 C 14,3 C 0,0 C 83 % 92 % 0 % 1015,1 hPa 0,0 l/m 0,3 km/h (0 Bft) W-SW 247 0 min 0,0 UV-I 11,8 C 14,3 C 0,0 km/h (0 Bft)
13.06.2012 21:55 14,6 C 21,2 C 15,2 C 14,5 C 14,2 C 0,0 C 83 % 92 % 0 % 1015,1 hPa 0,0 l/m 0,2 km/h (0 Bft) SW 225 0 min 0,0 UV-I 11,7 C 14,2 C 1,9 km/h (1 Bft)
13.06.2012 22:00 14,6 C 21,2 C 15,2 C 14,5 C 14,2 C 0,0 C 83 % 92 % 0 % 1015,1 hPa 0,0 l/m 0,3 km/h (0 Bft) S-SW 202 0 min 0,0 UV-I 11,7 C 14,2 C 1,9 km/h (1 Bft)
13.06.2012 22:05 14,5 C 21,1 C 15,3 C 14,4 C 14,2 C 0,0 C 83 % 92 % 0 % 1015,6 hPa 0,0 l/m 1,1 km/h (1 Bft) W-SW 247 0 min 0,0 UV-I 11,6 C 14,2 C 0,0 km/h (0 Bft)
13.06.2012 22:10 14,4 C 21,1 C 15,2 C 14,3 C 14,2 C 0,0 C 83 % 92 % 0 % 1015,6 hPa 0,0 l/m 1,0 km/h (0 Bft) SW 225 0 min 0,0 UV-I 11,5 C 14,2 C 0,0 km/h (0 Bft)
13.06.2012 22:15 14,3 C 21,1 C 15,2 C 14,3 C 14,2 C 0,0 C 83 % 92 % 0 % 1015,6 hPa 0,0 l/m 0,2 km/h (0 Bft) SW 225 0 min 0,0 UV-I 11,5 C 14,2 C 0,0 km/h (0 Bft)
13.06.2012 22:20 14,3 C 21,2 C 15,2 C 14,3 C 14,2 C 0,0 C 82 % 92 % 0 % 1015,6 hPa 0,0 l/m 0,3 km/h (0 Bft) S-SO 157 0 min 0,0 UV-I 11,3 C 14,2 C 0,0 km/h (0 Bft)
13.06.2012 22:25 14,4 C 21,2 C 15,1 C 14,3 C 14,2 C 0,0 C 82 % 92 % 0 % 1015,5 hPa 0,0 l/m 0,2 km/h (0 Bft) S 180 0 min 0,0 UV-I 11,4 C 14,2 C 0,0 km/h (0 Bft)
13.06.2012 22:30 14,3 C 21,2 C 15,2 C 14,3 C 14,2 C 0,0 C 82 % 92 % 0 % 1015,5 hPa 0,0 l/m 0,2 km/h (0 Bft) W-SW 247 0 min 0,0 UV-I 11,3 C 14,2 C 0,0 km/h (0 Bft)
13.06.2012 22:35 14,4 C 21,2 C 15,1 C 14,4 C 14,3 C 0,0 C 82 % 92 % 0 % 1015,5 hPa 0,0 l/m 0,3 km/h (0 Bft) S-SW 202 0 min 0,0 UV-I 11,4 C 14,3 C 2,6 km/h (1 Bft)
13.06.2012 22:40 14,3 C 21,2 C 15,1 C 14,3 C 14,3 C 0,0 C 81 % 92 % 0 % 1015,5 hPa 0,0 l/m 0,3 km/h (0 Bft) W-SW 247 0 min 0,0 UV-I 11,1 C 14,3 C 0,0 km/h (0 Bft)
13.06.2012 22:45 14,3 C 21,2 C 15,1 C 14,3 C 14,3 C 0,0 C 81 % 92 % 0 % 1015,6 hPa 0,0 l/m 1,3 km/h (1 Bft) W 270 0 min 0,0 UV-I 11,1 C 14,3 C 3,5 km/h (1 Bft)
13.06.2012 22:50 14,4 C 21,2 C 15,1 C 14,4 C 14,4 C 0,0 C 79 % 92 % 0 % 1015,6 hPa 0,0 l/m 2,6 km/h (1 Bft) W-SW 247 0 min 0,0 UV-I 10,8 C 14,4 C 2,6 km/h (1 Bft)
13.06.2012 22:55 14,5 C 21,2 C 15,1 C 14,5 C 14,4 C 0,0 C 79 % 92 % 0 % 1015,6 hPa 0,0 l/m 3,5 km/h (1 Bft) SW 225 0 min 0,0 UV-I 10,9 C 14,4 C 5,0 km/h (1 Bft)
13.06.2012 23:00 14,5 C 21,2 C 15,0 C 14,4 C 14,3 C 0,0 C 79 % 92 % 0 % 1015,6 hPa 0,0 l/m 3,1 km/h (1 Bft) W-SW 247 0 min 0,0 UV-I 10,9 C 14,3 C 4,0 km/h (1 Bft)
13.06.2012 23:15 14,2 C 21,2 C 14,8 C 14,0 C 13,6 C 0,0 C 79 % 91 % 0 % 1015,8 hPa 0,7 l/m 2,4 km/h (1 Bft) S 180 0 min 0,0 UV-I 10,6 C 13,6 C 2,9 km/h (1 Bft)
13.06.2012 23:25 14,0 C 21,2 C 14,7 C 13,7 C 13,1 C 0,0 C 80 % 91 % 0 % 1015,8 hPa 0,0 l/m 2,7 km/h (1 Bft) SW 225 0 min 0,0 UV-I 10,6 C 13,1 C 2,9 km/h (1 Bft)
13.06.2012 23:30 14,1 C 21,2 C 14,6 C 13,7 C 13,0 C 0,0 C 80 % 92 % 0 % 1015,8 hPa 0,0 l/m 2,4 km/h (1 Bft) W-SW 247 0 min 0,0 UV-I 10,7 C 13,0 C 2,6 km/h (1 Bft)
13.06.2012 23:35 13,8 C 21,2 C 14,7 C 13,4 C 12,7 C 0,0 C 81 % 92 % 0 % 1015,8 hPa 0,0 l/m 1,8 km/h (1 Bft) S 180 0 min 0,0 UV-I 10,6 C 12,7 C 3,1 km/h (1 Bft)
13.06.2012 23:40 13,9 C 21,2 C 14,6 C 13,5 C 12,6 C 0,0 C 81 % 92 % 0 % 1015,8 hPa 0,0 l/m 2,6 km/h (1 Bft) W 270 0 min 0,0 UV-I 10,7 C 12,6 C 1,8 km/h (1 Bft)
13.06.2012 23:45 13,6 C 21,2 C 14,5 C 13,2 C 12,5 C 0,0 C 81 % 92 % 0 % 1016,1 hPa 0,0 l/m 2,7 km/h (1 Bft) S 180 0 min 0,0 UV-I 10,4 C 12,5 C 4,8 km/h (1 Bft)
13.06.2012 23:50 13,6 C 21,2 C 14,4 C 13,2 C 12,5 C 0,0 C 81 % 92 % 0 % 1016,1 hPa 0,0 l/m 2,4 km/h (1 Bft) S-SO 157 0 min 0,0 UV-I 10,4 C 12,5 C 2,1 km/h (1 Bft)
13.06.2012 23:55 13,5 C 21,2 C 14,4 C 13,1 C 12,4 C 0,0 C 82 % 92 % 0 % 1016,1 hPa 0,0 l/m 2,6 km/h (1 Bft) W-SW 247 0 min 0,0 UV-I 10,5 C 12,4 C 2,9 km/h (1 Bft)
_ Min-Zeit 02:25 14:40 03:25 02:25 01:15 00:00 17:45 17:11 00:00 00:00 - 00:00 - - - 00:00 01:25 01:15 00:00
Minimum _ 11,8 C 20,7 C 14,4 C 11,7 C 11,6 C 0,0 C 67 % 85 % 0 % 1005,6 hPa - 0,0 km/h (0 Bft) - - - 0,0 UV-I 9,7 C 11,6 C 0,0 km/h (0 Bft)
_ Max-Zeit 17:45 00:00 17:45 17:45 17:45 17:00 03:55 01:45 16:55 23:45 23:15 12:35 - - 17:11 00:00 17:35 17:45 11:45
Maximum _ 18,7 C 21,9 C 16,7 C 22,9 C 22,9 C 4,3 C 89 % 93 % 100 % 1016,1 hPa 0,7 l/m 6,0 km/h
W-SW (2 Bft)
- - 11 min 0,0 UV-I 12,5 C 22,9 C 14,2 km/h
S (3 Bft)
Durchschnitt _ 14,6 C 21,1 C 15,1 C 15,7 C 15,6 C 1,1 C 80 % 90 % 29 % 1010,9 hPa #0,7 l/m 2,6 km/h (1 Bft) W-SW - #1:37 h 0,0 UV-I 11,2 C 15,6 C 3,5 km/h (1 Bft)
2012 www.wetterstation-wechselburg.de